,,PA_Meas_PMT16A,,PR_Meas_QMR101_102,,RH_Meas_QMH101,,SR_Meas_QMS101,,TA_Meas_QMH101,,GenWind,,GenWind,
time,status,PA,status,PR,status,RH,status,SR,status,TA,status,DirAvg,status,SpdAvg,
2011-07-29, 00:00:04,VALID,917.775,VALID,0,VALID,96.4896,VALID,0,VALID,19.4688,VALID,10,VALID,0.453516,
2011-07-29, 00:01:04,VALID,917.724,VALID,0,VALID,96.5582,VALID,0,VALID,19.5063,VALID,10,VALID,0.0195313,
2011-07-29, 00:02:05,VALID,917.727,VALID,0,VALID,96.5887,VALID,0,VALID,19.5258,VALID,10,VALID,0.0875,
2011-07-29, 00:03:05,VALID,917.706,VALID,0,VALID,96.6725,VALID,0,VALID,19.6053,VALID,10,VALID,0.167187,
2011-07-29, 00:04:05,VALID,917.722,VALID,0,VALID,96.6344,VALID,0,VALID,19.6248,VALID,10,VALID,0.314453,
2011-07-29, 00:05:05,VALID,917.712,VALID,0,VALID,96.642,VALID,0,VALID,19.5843,VALID,10,VALID,0.452344,
2011-07-29, 00:06:05,VALID,917.698,VALID,0,VALID,96.6725,VALID,0,VALID,19.6443,VALID,10,VALID,0.226563,
2011-07-29, 00:07:05,VALID,917.731,VALID,0,VALID,96.6878,VALID,0,VALID,19.6638,VALID,10,VALID,0,
2011-07-29, 00:08:05,VALID,917.712,VALID,0,VALID,96.6802,VALID,0,VALID,19.6233,VALID,10,VALID,0,
2011-07-29, 00:09:05,VALID,917.747,VALID,0,VALID,96.5048,VALID,0,VALID,19.5858,VALID,10,VALID,0.448828,
2011-07-29, 00:10:05,VALID,917.735,VALID,0,VALID,96.6115,VALID,0,VALID,19.5273,VALID,10,VALID,0.282422,
2011-07-29, 00:11:05,VALID,917.726,VALID,0,VALID,96.6192,VALID,0,VALID,19.5273,VALID,10,VALID,0.276953,
2011-07-29, 00:12:05,VALID,917.69,VALID,0,VALID,96.4667,VALID,0,VALID,19.4088,VALID,10,VALID,0.535547,
2011-07-29, 00:13:05,VALID,917.656,VALID,0,VALID,96.6192,VALID,0,VALID,19.3908,VALID,10,VALID,0.430859,
2011-07-29, 00:14:05,VALID,917.615,VALID,0,VALID,96.7945,VALID,0,VALID,19.4883,VALID,10,VALID,0.401563,
2011-07-29, 00:15:05,VALID,917.637,VALID,0,VALID,96.8631,VALID,0,VALID,19.5468,VALID,10,VALID,0.362109,
2011-07-29, 00:16:05,VALID,917.627,VALID,0,VALID,96.9012,VALID,0,VALID,19.6053,VALID,10,VALID,0.180469,
2011-07-29, 00:17:05,VALID,917.612,VALID,0,VALID,96.886,VALID,0,VALID,19.6638,VALID,10,VALID,0,
2011-07-29, 00:18:05,VALID,917.624,VALID,0,VALID,96.7869,VALID,0,VALID,19.6248,VALID,10,VALID,0,
2011-07-29, 00:19:05,VALID,917.624,VALID,0,VALID,96.7793,VALID,0,VALID,19.6053,VALID,10,VALID,0,
2011-07-29, 00:20:05,VALID,917.611,VALID,0,VALID,96.7716,VALID,0,VALID,19.5858,VALID,10,VALID,0,
2011-07-29, 00:21:05,VALID,917.597,VALID,0,VALID,96.7945,VALID,0,VALID,19.5858,VALID,10,VALID,0,
2011-07-29, 00:22:05,VALID,917.593,VALID,0,VALID,96.8326,VALID,0,VALID,19.6053,VALID,10,VALID,0,
2011-07-29, 00:23:05,VALID,917.569,VALID,0,VALID,96.886,VALID,0,VALID,19.6248,VALID,10,VALID,0.2125,
2011-07-29, 00:24:05,VALID,917.57,VALID,0,VALID,96.764,VALID,0,VALID,19.6053,VALID,10,VALID,0.601563,
2011-07-29, 00:25:05,VALID,917.581,VALID,0,VALID,96.7793,VALID,0,VALID,19.5663,VALID,10,VALID,0.348437,
2011-07-29, 00:26:05,VALID,917.583,VALID,0,VALID,96.7945,VALID,0,VALID,19.5468,VALID,10,VALID,0.140625,
2011-07-29, 00:27:05,VALID,917.563,VALID,0,VALID,96.9317,VALID,0,VALID,19.5663,VALID,10,VALID,0.525391,
2011-07-29, 00:28:05,VALID,917.539,VALID,0,VALID,96.8707,VALID,0,VALID,19.6053,VALID,10,VALID,0.301562,
2011-07-29, 00:29:05,VALID,917.527,VALID,0,VALID,96.886,VALID,0,VALID,19.5858,VALID,10,VALID,0,
2011-07-29, 00:30:05,VALID,917.5,VALID,0,VALID,96.8936,VALID,0,VALID,19.6053,VALID,10,VALID,0,
2011-07-29, 00:31:05,VALID,917.484,VALID,0,VALID,96.886,VALID,0,VALID,19.6053,VALID,10,VALID,0,
2011-07-29, 00:32:05,VALID,917.499,VALID,0,VALID,96.8784,VALID,0,VALID,19.5843,VALID,10,VALID,0,
2011-07-29, 00:33:05,VALID,917.449,VALID,0,VALID,96.8174,VALID,0,VALID,19.5663,VALID,10,VALID,0.35625,
2011-07-29, 00:34:05,VALID,917.491,VALID,0,VALID,96.7716,VALID,0,VALID,19.4883,VALID,10,VALID,0.407031,
2011-07-29, 00:35:05,VALID,917.505,VALID,0,VALID,96.7945,VALID,0,VALID,19.4493,VALID,10,VALID,0.324609,
2011-07-29, 00:36:05,VALID,917.479,VALID,0,VALID,96.7869,VALID,0,VALID,19.4103,VALID,10,VALID,0.266016,
2011-07-29, 00:37:05,VALID,917.476,VALID,0,VALID,96.6497,VALID,0,VALID,19.3323,VALID,10,VALID,0.452734,
2011-07-29, 00:38:05,VALID,917.401,VALID,0,VALID,96.7107,VALID,0,VALID,19.2348,VALID,10,VALID,0.477734,
2011-07-29, 00:39:05,VALID,917.44,VALID,0,VALID,96.8174,VALID,0,VALID,19.2348,VALID,10,VALID,0.374219,
2011-07-29, 00:40:05,VALID,917.449,VALID,0,VALID,96.8555,VALID,0.107441,VALID,19.2348,VALID,10,VALID,0.540234,
2011-07-29, 00:41:05,VALID,917.44,VALID,0,VALID,96.9165,VALID,0,VALID,19.2139,VALID,10,VALID,0.253906,
2011-07-29, 00:42:05,VALID,917.414,VALID,0,VALID,96.9317,VALID,0,VALID,19.2348,VALID,10,VALID,0.710547,
2011-07-29, 00:43:05,VALID,917.416,VALID,0,VALID,96.9241,VALID,0,VALID,19.2348,VALID,10,VALID,0.443359,
2011-07-29, 00:44:05,VALID,917.4,VALID,0,VALID,96.9241,VALID,0,VALID,19.2153,VALID,10,VALID,0.536328,
2011-07-29, 00:45:05,VALID,917.385,VALID,0,VALID,96.947,VALID,0.107441,VALID,19.1944,VALID,10,VALID,0.196094,
2011-07-29, 00:46:05,VALID,917.434,VALID,0,VALID,97.0232,VALID,0,VALID,19.2139,VALID,332,VALID,0.55,
2011-07-29, 00:47:05,VALID,917.39,VALID,0,VALID,97.0537,VALID,0,VALID,19.2738,VALID,332,VALID,0.00585938,
2011-07-29, 00:48:05,VALID,917.374,VALID,0,VALID,97.0766,VALID,0,VALID,19.2933,VALID,332,VALID,0.131641,
2011-07-29, 00:49:05,VALID,917.339,VALID,0,VALID,97.0842,VALID,0,VALID,19.3323,VALID,332,VALID,0.5,
2011-07-29, 00:50:05,VALID,917.341,VALID,0,VALID,97.008,VALID,0,VALID,19.3323,VALID,332,VALID,0.457422,
2011-07-29, 00:51:05,VALID,917.332,VALID,0,VALID,96.8936,VALID,0,VALID,19.2738,VALID,332,VALID,0.467578,
2011-07-29, 00:52:05,VALID,917.303,VALID,0,VALID,97.008,VALID,0,VALID,19.2334,VALID,347,VALID,0.864453,
2011-07-29, 00:53:05,VALID,917.287,VALID,0,VALID,97.0613,VALID,0,VALID,19.2723,VALID,349,VALID,1.08477,
2011-07-29, 00:54:05,VALID,917.327,VALID,0,VALID,97.0537,VALID,0,VALID,19.2933,VALID,356,VALID,0.953516,
2011-07-29, 00:55:05,VALID,917.311,VALID,0,VALID,97.0613,VALID,0,VALID,19.2933,VALID,356,VALID,0.526563,
2011-07-29, 00:56:05,VALID,917.321,VALID,0,VALID,97.0613,VALID,0,VALID,19.2933,VALID,356,VALID,0.569531,
2011-07-29, 00:57:05,VALID,917.26,VALID,0,VALID,97.0766,VALID,0,VALID,19.2933,VALID,356,VALID,0.188672,
2011-07-29, 00:58:05,VALID,917.229,VALID,0,VALID,97.1071,VALID,0,VALID,19.3323,VALID,356,VALID,0.509766,
2011-07-29, 00:59:05,VALID,917.224,VALID,0,VALID,97.0003,VALID,0,VALID,19.2933,VALID,356,VALID,0.492188,
2011-07-29, 01:00:05,VALID,917.224,VALID,0,VALID,97.0308,VALID,0,VALID,19.2738,VALID,356,VALID,0.393359,
2011-07-29, 01:01:05,VALID,917.238,VALID,0,VALID,96.9622,VALID,0,VALID,19.2543,VALID,356,VALID,0.276953,
2011-07-29, 01:02:05,VALID,917.296,VALID,0,VALID,96.9317,VALID,0,VALID,19.1958,VALID,356,VALID,0.238281,
2011-07-29, 01:03:05,VALID,917.295,VALID,0,VALID,96.9775,VALID,0,VALID,19.1749,VALID,356,VALID,0.133984,
2011-07-29, 01:04:05,VALID,917.28,VALID,0,VALID,97.0308,VALID,0,VALID,19.1749,VALID,356,VALID,0.05625,
2011-07-29, 01:05:05,VALID,917.266,VALID,0,VALID,97.0766,VALID,0,VALID,19.2153,VALID,356,VALID,0,
2011-07-29, 01:06:05,VALID,917.233,VALID,0,VALID,97.0232,VALID,0,VALID,19.2153,VALID,356,VALID,0,
2011-07-29, 01:07:05,VALID,917.207,VALID,0,VALID,97.0613,VALID,0,VALID,19.1944,VALID,356,VALID,0.404297,
2011-07-29, 01:08:05,VALID,917.198,VALID,0,VALID,97.069,VALID,0,VALID,19.1944,VALID,356,VALID,0.366016,
2011-07-29, 01:09:05,VALID,917.197,VALID,0,VALID,97.0461,VALID,0,VALID,19.1958,VALID,356,VALID,0.186328,
2011-07-29, 01:10:05,VALID,917.138,VALID,0,VALID,97.0842,VALID,0,VALID,19.2153,VALID,356,VALID,0.341406,
2011-07-29, 01:11:05,VALID,917.143,VALID,0,VALID,97.0766,VALID,0,VALID,19.2153,VALID,356,VALID,0.585156,
2011-07-29, 01:12:05,VALID,917.123,VALID,0,VALID,97.0842,VALID,0,VALID,19.2153,VALID,356,VALID,0.692187,
2011-07-29, 01:13:05,VALID,917.085,VALID,0,VALID,97.0994,VALID,0,VALID,19.2348,VALID,356,VALID,0.663281,
2011-07-29, 01:14:05,VALID,917.086,VALID,0,VALID,97.1071,VALID,0,VALID,19.2738,VALID,356,VALID,0.555859,
2011-07-29, 01:15:05,VALID,917.073,VALID,0,VALID,97.0156,VALID,0,VALID,19.2543,VALID,356,VALID,0.631641,
2011-07-29, 01:16:05,VALID,917.078,VALID,0,VALID,96.9927,VALID,0,VALID,19.2153,VALID,356,VALID,0.771094,
2011-07-29, 01:17:05,VALID,917.061,VALID,0,VALID,96.9851,VALID,0,VALID,19.2348,VALID,356,VALID,0.692578,
2011-07-29, 01:18:05,VALID,917.053,VALID,0,VALID,97.008,VALID,0,VALID,19.2348,VALID,356,VALID,0.653516,
2011-07-29, 01:19:05,VALID,917.052,VALID,0,VALID,97.0232,VALID,0,VALID,19.2348,VALID,356,VALID,0.605078,
2011-07-29, 01:20:05,VALID,917.046,VALID,0,VALID,96.9546,VALID,0,VALID,19.2153,VALID,356,VALID,0.333984,
2011-07-29, 01:21:05,VALID,916.988,VALID,0,VALID,96.8555,VALID,0,VALID,19.1373,VALID,356,VALID,0.172656,
2011-07-29, 01:22:05,VALID,916.993,VALID,0,VALID,96.7411,VALID,0,VALID,19.0593,VALID,356,VALID,0.710547,
2011-07-29, 01:23:05,VALID,916.986,VALID,0,VALID,96.7259,VALID,0,VALID,18.9799,VALID,356,VALID,0.536328,
2011-07-29, 01:24:05,VALID,916.964,VALID,0,VALID,96.7793,VALID,0,VALID,18.9604,VALID,356,VALID,0.814062,
2011-07-29, 01:25:05,VALID,916.966,VALID,0,VALID,96.7945,VALID,0,VALID,18.9619,VALID,356,VALID,0.575781,
2011-07-29, 01:26:05,VALID,916.947,VALID,0,VALID,96.825,VALID,0,VALID,18.9409,VALID,356,VALID,0.920703,
2011-07-29, 01:27:05,VALID,916.924,VALID,0,VALID,96.9851,VALID,0,VALID,19.0398,VALID,356,VALID,0.851563,
2011-07-29, 01:28:05,VALID,916.912,VALID,0,VALID,97.0385,VALID,0,VALID,19.0774,VALID,356,VALID,0.643359,
2011-07-29, 01:29:05,VALID,916.886,VALID,0,VALID,96.8403,VALID,0,VALID,19.0593,VALID,356,VALID,0.233594,
2011-07-29, 01:30:05,VALID,916.902,VALID,0,VALID,96.764,VALID,0,VALID,19.0008,VALID,356,VALID,0.207422,
2011-07-29, 01:31:05,VALID,916.869,VALID,0,VALID,96.886,VALID,0,VALID,19.0398,VALID,356,VALID,0.158594,
2011-07-29, 01:32:05,VALID,916.843,VALID,0,VALID,96.9927,VALID,0,VALID,19.0998,VALID,356,VALID,0.385156,
2011-07-29, 01:33:05,VALID,916.835,VALID,0,VALID,97.008,VALID,0,VALID,19.1554,VALID,356,VALID,0.615625,
2011-07-29, 01:34:05,VALID,916.823,VALID,0,VALID,96.9317,VALID,0,VALID,19.1763,VALID,356,VALID,0.338672,
2011-07-29, 01:35:05,VALID,916.806,VALID,0,VALID,96.7107,VALID,0,VALID,19.0983,VALID,356,VALID,0,
2011-07-29, 01:36:05,VALID,916.781,VALID,0,VALID,96.6192,VALID,0,VALID,18.9799,VALID,356,VALID,0,
2011-07-29, 01:37:05,VALID,916.766,VALID,0,VALID,96.4972,VALID,0,VALID,18.9424,VALID,356,VALID,0,
2011-07-29, 01:38:05,VALID,916.758,VALID,0,VALID,96.4362,VALID,0,VALID,18.8839,VALID,356,VALID,0,
2011-07-29, 01:39:05,VALID,916.742,VALID,0,VALID,96.4438,VALID,0,VALID,18.8839,VALID,356,VALID,0,
2011-07-29, 01:40:05,VALID,916.735,VALID,0,VALID,96.4133,VALID,0,VALID,18.8449,VALID,356,VALID,0,
2011-07-29, 01:41:05,VALID,916.727,VALID,0,VALID,96.36,VALID,0,VALID,18.8059,VALID,356,VALID,0,
2011-07-29, 01:42:05,VALID,916.758,VALID,0,VALID,96.4743,VALID,0,VALID,18.8644,VALID,356,VALID,0.0359375,
2011-07-29, 01:43:05,VALID,916.762,VALID,0,VALID,96.5734,VALID,0,VALID,18.9229,VALID,356,VALID,0.357812,
2011-07-29, 01:44:05,VALID,916.755,VALID,0,VALID,96.6039,VALID,0,VALID,18.9814,VALID,356,VALID,0.364844,
2011-07-29, 01:45:05,VALID,916.751,VALID,0,VALID,96.421,VALID,0,VALID,18.9214,VALID,356,VALID,0.335938,
2011-07-29, 01:46:05,VALID,916.74,VALID,0,VALID,96.1313,VALID,0,VALID,18.7669,VALID,356,VALID,0.634766,
2011-07-29, 01:47:05,VALID,916.746,VALID,0,VALID,96.3905,VALID,0,VALID,18.8644,VALID,356,VALID,0.35625,
2011-07-29, 01:48:05,VALID,916.738,VALID,0,VALID,96.5811,VALID,0,VALID,18.9604,VALID,356,VALID,0.307031,
2011-07-29, 01:49:05,VALID,916.75,VALID,0,VALID,96.6878,VALID,0,VALID,19.0579,VALID,356,VALID,0.246094,
2011-07-29, 01:50:05,VALID,916.687,VALID,0,VALID,96.6039,VALID,0,VALID,19.0788,VALID,356,VALID,0.327734,
2011-07-29, 01:51:05,VALID,916.667,VALID,0,VALID,96.6344,VALID,0,VALID,19.0983,VALID,356,VALID,0.51875,
2011-07-29, 01:52:05,VALID,916.666,VALID,0,VALID,96.421,VALID,0,VALID,19.0398,VALID,356,VALID,0,
2011-07-29, 01:53:05,VALID,916.637,VALID,0,VALID,96.5887,VALID,0,VALID,19.0398,VALID,356,VALID,0.544141,
2011-07-29, 01:54:05,VALID,916.65,VALID,0,VALID,96.3829,VALID,0,VALID,19.0008,VALID,356,VALID,0.349609,
2011-07-29, 01:55:05,VALID,916.651,VALID,0,VALID,96.177,VALID,0,VALID,18.8434,VALID,356,VALID,0.286719,
2011-07-29, 01:56:05,VALID,916.661,VALID,0,VALID,95.8721,VALID,0,VALID,18.6694,VALID,356,VALID,0.685547,
2011-07-29, 01:57:05,VALID,916.668,VALID,0,VALID,96.2609,VALID,0,VALID,18.7474,VALID,356,VALID,0.754297,
2011-07-29, 01:58:05,VALID,916.64,VALID,0,VALID,96.3829,VALID,0,VALID,18.7669,VALID,356,VALID,0.825,
2011-07-29, 01:59:05,VALID,916.619,VALID,0,VALID,96.3295,VALID,0,VALID,18.7864,VALID,356,VALID,0.545703,
2011-07-29, 02:00:05,VALID,916.639,VALID,0,VALID,96.6268,VALID,0,VALID,18.8644,VALID,8,VALID,0.822266,
2011-07-29, 02:01:05,VALID,916.609,VALID,0,VALID,96.5811,VALID,0,VALID,18.8644,VALID,8,VALID,0.429297,
2011-07-29, 02:02:05,VALID,916.607,VALID,0,VALID,96.6573,VALID,0,VALID,18.8839,VALID,8,VALID,0.438281,
2011-07-29, 02:03:05,VALID,916.616,VALID,0,VALID,96.6954,VALID,0,VALID,18.9229,VALID,8,VALID,0.339844,
2011-07-29, 02:04:05,VALID,916.614,VALID,0,VALID,96.7107,VALID,0,VALID,18.9828,VALID,8,VALID,0.265234,
2011-07-29, 02:05:05,VALID,916.587,VALID,0,VALID,96.6878,VALID,0,VALID,18.9619,VALID,8,VALID,0.341406,
2011-07-29, 02:06:05,VALID,916.581,VALID,0,VALID,96.6649,VALID,0,VALID,18.9814,VALID,8,VALID,0.0398437,
2011-07-29, 02:07:05,VALID,916.567,VALID,0,VALID,96.5734,VALID,0,VALID,18.9424,VALID,8,VALID,0,
2011-07-29, 02:08:05,VALID,916.523,VALID,0,VALID,96.5353,VALID,0,VALID,18.9243,VALID,8,VALID,0,
2011-07-29, 02:09:05,VALID,916.524,VALID,0,VALID,96.5353,VALID,0,VALID,18.9452,VALID,8,VALID,0,
2011-07-29, 02:10:05,VALID,916.49,VALID,0,VALID,96.5124,VALID,0,VALID,18.9048,VALID,8,VALID,0,
2011-07-29, 02:11:05,VALID,916.508,VALID,0,VALID,96.4362,VALID,0,VALID,18.8658,VALID,8,VALID,0.447656,
2011-07-29, 02:12:05,VALID,916.451,VALID,0,VALID,96.3981,VALID,0,VALID,18.7864,VALID,8,VALID,0.40625,
2011-07-29, 02:13:05,VALID,916.457,VALID,0,VALID,96.3981,VALID,0,VALID,18.7683,VALID,8,VALID,0.130469,
2011-07-29, 02:14:05,VALID,916.45,VALID,0,VALID,96.4438,VALID,0,VALID,18.7474,VALID,8,VALID,0,
2011-07-29, 02:15:05,VALID,916.466,VALID,0,VALID,96.3066,VALID,0,VALID,18.6694,VALID,8,VALID,0,
2011-07-29, 02:16:05,VALID,916.468,VALID,0,VALID,96.36,VALID,0,VALID,18.6708,VALID,8,VALID,0,
2011-07-29, 02:17:05,VALID,916.441,VALID,0,VALID,96.3371,VALID,0,VALID,18.6319,VALID,8,VALID,0,
2011-07-29, 02:18:05,VALID,916.472,VALID,0,VALID,96.3524,VALID,0,VALID,18.5914,VALID,8,VALID,0,
2011-07-29, 02:19:05,VALID,916.434,VALID,0,VALID,96.421,VALID,0,VALID,18.5914,VALID,8,VALID,0,
2011-07-29, 02:20:05,VALID,916.376,VALID,0,VALID,96.3676,VALID,0,VALID,18.5525,VALID,8,VALID,0.378516,
2011-07-29, 02:21:05,VALID,916.333,VALID,0,VALID,96.1923,VALID,0,VALID,18.4954,VALID,8,VALID,0.478516,
2011-07-29, 02:22:05,VALID,916.337,VALID,0,VALID,96.2151,VALID,0,VALID,18.3979,VALID,8,VALID,0.285937,
2011-07-29, 02:23:05,VALID,916.349,VALID,0,VALID,96.5124,VALID,0,VALID,18.4745,VALID,8,VALID,0.357422,
2011-07-29, 02:24:05,VALID,916.325,VALID,0,VALID,96.6878,VALID,0,VALID,18.5929,VALID,8,VALID,0.454297,
2011-07-29, 02:25:05,VALID,916.306,VALID,0,VALID,96.8098,VALID,0,VALID,18.6499,VALID,8,VALID,0.463672,
2011-07-29, 02:26:05,VALID,916.274,VALID,0,VALID,96.8555,VALID,0,VALID,18.7084,VALID,8,VALID,0.185547,
2011-07-29, 02:27:05,VALID,916.272,VALID,0,VALID,96.8707,VALID,0,VALID,18.7669,VALID,8,VALID,0.316797,
2011-07-29, 02:28:05,VALID,916.254,VALID,0,VALID,96.8326,VALID,0,VALID,18.7864,VALID,8,VALID,0.325,
2011-07-29, 02:29:05,VALID,916.228,VALID,0,VALID,96.8174,VALID,0,VALID,18.8073,VALID,8,VALID,0.401563,
2011-07-29, 02:30:05,VALID,916.203,VALID,0,VALID,96.7259,VALID,0,VALID,18.7878,VALID,8,VALID,0.544922,
2011-07-29, 02:31:05,VALID,916.208,VALID,0,VALID,96.6954,VALID,0,VALID,18.6889,VALID,8,VALID,0.0304688,
2011-07-29, 02:32:05,VALID,916.203,VALID,0,VALID,96.6573,VALID,0,VALID,18.6304,VALID,8,VALID,0.221094,
2011-07-29, 02:33:05,VALID,916.18,VALID,0,VALID,96.6649,VALID,0,VALID,18.5929,VALID,8,VALID,0.0484375,
2011-07-29, 02:34:05,VALID,916.178,VALID,0,VALID,96.7335,VALID,0,VALID,18.5734,VALID,8,VALID,0,
2011-07-29, 02:35:05,VALID,916.172,VALID,0,VALID,96.7411,VALID,0,VALID,18.5525,VALID,8,VALID,0,
2011-07-29, 02:36:05,VALID,916.193,VALID,0,VALID,96.825,VALID,0,VALID,18.5525,VALID,8,VALID,0,
2011-07-29, 02:37:05,VALID,916.167,VALID,0,VALID,96.8555,VALID,0,VALID,18.5914,VALID,8,VALID,0.228125,
2011-07-29, 02:38:05,VALID,916.191,VALID,0,VALID,96.8174,VALID,0,VALID,18.533,VALID,8,VALID,0.569922,
2011-07-29, 02:39:05,VALID,916.189,VALID,0,VALID,96.7183,VALID,0,VALID,18.4759,VALID,8,VALID,0.917188,
2011-07-29, 02:40:05,VALID,916.213,VALID,0,VALID,96.7107,VALID,0,VALID,18.3965,VALID,8,VALID,0.844141,
2011-07-29, 02:41:05,VALID,916.216,VALID,0,VALID,96.6878,VALID,0,VALID,18.3589,VALID,8,VALID,0.664844,
2011-07-29, 02:42:05,VALID,916.215,VALID,0,VALID,96.7869,VALID,0,VALID,18.3394,VALID,8,VALID,0.509766,
2011-07-29, 02:43:05,VALID,916.18,VALID,0,VALID,96.9317,VALID,0,VALID,18.4355,VALID,8,VALID,0.282813,
2011-07-29, 02:44:05,VALID,916.167,VALID,0,VALID,96.9775,VALID,0,VALID,18.4759,VALID,8,VALID,0,
2011-07-29, 02:45:05,VALID,916.169,VALID,0,VALID,96.6954,VALID,0,VALID,18.4745,VALID,8,VALID,0,
2011-07-29, 02:46:05,VALID,916.168,VALID,0,VALID,96.5582,VALID,0,VALID,18.2601,VALID,8,VALID,0.366406,
2011-07-29, 02:47:04,VALID,916.152,VALID,0,VALID,96.8707,VALID,0,VALID,18.3199,VALID,8,VALID,0.383594,
2011-07-29, 02:48:04,VALID,916.164,VALID,0,VALID,96.7793,VALID,0,VALID,18.2615,VALID,8,VALID,0.0769531,
2011-07-29, 02:49:04,VALID,916.149,VALID,0,VALID,96.8707,VALID,0,VALID,18.2601,VALID,8,VALID,0.316406,
2011-07-29, 02:50:04,VALID,916.163,VALID,0,VALID,96.9241,VALID,0,VALID,18.2796,VALID,8,VALID,0.402344,
2011-07-29, 02:51:04,VALID,916.157,VALID,0,VALID,97.069,VALID,0,VALID,18.3575,VALID,8,VALID,0.378906,
2011-07-29, 02:52:04,VALID,916.149,VALID,0,VALID,97.0385,VALID,0,VALID,18.3965,VALID,8,VALID,0.452344,
2011-07-29, 02:53:04,VALID,916.154,VALID,0,VALID,96.7183,VALID,0,VALID,18.2615,VALID,8,VALID,0.608203,
2011-07-29, 02:54:04,VALID,916.127,VALID,0,VALID,96.7716,VALID,0,VALID,18.164,VALID,8,VALID,0.687109,
2011-07-29, 02:55:04,VALID,916.123,VALID,0,VALID,97.0003,VALID,0,VALID,18.2225,VALID,8,VALID,0.752344,
2011-07-29, 02:56:04,VALID,916.132,VALID,0,VALID,97.1071,VALID,0,VALID,18.3004,VALID,8,VALID,0.65625,
2011-07-29, 02:57:04,VALID,916.151,VALID,0,VALID,97.0766,VALID,0,VALID,18.3199,VALID,8,VALID,0.510938,
2011-07-29, 02:58:04,VALID,916.114,VALID,0,VALID,96.9317,VALID,0,VALID,18.299,VALID,8,VALID,0.55625,
2011-07-29, 02:59:04,VALID,916.146,VALID,0,VALID,96.8784,VALID,0,VALID,18.242,VALID,8,VALID,0.432422,
2011-07-29, 03:00:04,VALID,916.131,VALID,0,VALID,96.886,VALID,0,VALID,18.1626,VALID,8,VALID,0.308984,
2011-07-29, 03:01:04,VALID,916.141,VALID,0,VALID,97.069,VALID,0,VALID,18.1821,VALID,8,VALID,0.197266,
2011-07-29, 03:02:04,VALID,916.14,VALID,0,VALID,97.2062,VALID,0,VALID,18.3408,VALID,8,VALID,0.188281,
2011-07-29, 03:03:04,VALID,916.157,VALID,0,VALID,97.3129,VALID,0,VALID,18.4369,VALID,8,VALID,0.224219,
2011-07-29, 03:04:04,VALID,916.13,VALID,0,VALID,97.2214,VALID,0,VALID,18.4745,VALID,8,VALID,0.338672,
2011-07-29, 03:05:04,VALID,916.096,VALID,0,VALID,97.2138,VALID,0,VALID,18.5344,VALID,8,VALID,0.466016,
2011-07-29, 03:06:04,VALID,916.109,VALID,0,VALID,97.0766,VALID,0,VALID,18.4954,VALID,8,VALID,0.526953,
2011-07-29, 03:07:04,VALID,916.08,VALID,0,VALID,97.2062,VALID,0,VALID,18.5539,VALID,8,VALID,0.421094,
2011-07-29, 03:08:04,VALID,916.065,VALID,0,VALID,97.1604,VALID,0,VALID,18.5734,VALID,8,VALID,0.353516,
2011-07-29, 03:09:04,VALID,916.011,VALID,0,VALID,97.1604,VALID,0,VALID,18.5734,VALID,8,VALID,0.398047,
2011-07-29, 03:10:04,VALID,916.037,VALID,0,VALID,96.947,VALID,0,VALID,18.5344,VALID,8,VALID,0.457812,
2011-07-29, 03:11:04,VALID,916.048,VALID,0,VALID,97.1909,VALID,0,VALID,18.5525,VALID,8,VALID,0.545313,
2011-07-29, 03:12:04,VALID,916.089,VALID,0,VALID,97.2367,VALID,0,VALID,18.6124,VALID,8,VALID,0.476172,
2011-07-29, 03:13:04,VALID,916.137,VALID,0,VALID,97.2367,VALID,0,VALID,18.6304,VALID,8,VALID,0.642187,
2011-07-29, 03:14:04,VALID,916.125,VALID,0,VALID,97.2138,VALID,0,VALID,18.6319,VALID,8,VALID,0.533984,
2011-07-29, 03:15:04,VALID,916.136,VALID,0,VALID,96.7869,VALID,0,VALID,18.5734,VALID,8,VALID,0.323828,
2011-07-29, 03:16:04,VALID,916.133,VALID,0,VALID,96.9394,VALID,0,VALID,18.455,VALID,8,VALID,0.236719,
2011-07-29, 03:17:04,VALID,916.136,VALID,0,VALID,97.0308,VALID,0,VALID,18.4355,VALID,8,VALID,0.371484,
2011-07-29, 03:18:04,VALID,916.097,VALID,0,VALID,97.1681,VALID,0,VALID,18.4745,VALID,8,VALID,0.188672,
2011-07-29, 03:19:04,VALID,916.065,VALID,0,VALID,97.1147,VALID,0,VALID,18.4731,VALID,8,VALID,0,
2011-07-29, 03:20:04,VALID,916.096,VALID,0,VALID,97.1757,VALID,0,VALID,18.5135,VALID,8,VALID,0.405469,
2011-07-29, 03:21:04,VALID,916.091,VALID,0,VALID,97.1986,VALID,0,VALID,18.5525,VALID,8,VALID,0.136719,
2011-07-29, 03:22:04,VALID,916.098,VALID,0,VALID,97.1604,VALID,0,VALID,18.533,VALID,8,VALID,0,
2011-07-29, 03:23:04,VALID,916.101,VALID,0,VALID,97.0918,VALID,0,VALID,18.5135,VALID,8,VALID,0,
2011-07-29, 03:24:04,VALID,916.098,VALID,0,VALID,97.0842,VALID,0,VALID,18.494,VALID,8,VALID,0,
2011-07-29, 03:25:04,VALID,916.12,VALID,0,VALID,97.1147,VALID,0,VALID,18.4745,VALID,8,VALID,0,
2011-07-29, 03:26:04,VALID,916.148,VALID,0,VALID,97.0385,VALID,0,VALID,18.4745,VALID,8,VALID,0.241797,
2011-07-29, 03:27:04,VALID,916.175,VALID,0,VALID,97.0232,VALID,0,VALID,18.4355,VALID,8,VALID,0.175781,
2011-07-29, 03:28:04,VALID,916.205,VALID,0,VALID,97.0613,VALID,0,VALID,18.3965,VALID,8,VALID,0.000390625,
2011-07-29, 03:29:04,VALID,916.243,VALID,0,VALID,97.2062,VALID,0,VALID,18.4745,VALID,8,VALID,0.475781,
2011-07-29, 03:30:04,VALID,916.231,VALID,0,VALID,97.2748,VALID,0.107441,VALID,18.5525,VALID,8,VALID,0.498047,
2011-07-29, 03:31:04,VALID,916.227,VALID,0,VALID,97.2824,VALID,0,VALID,18.59,VALID,8,VALID,0.738672,
2011-07-29, 03:32:04,VALID,916.234,VALID,0,VALID,97.2824,VALID,0,VALID,18.6499,VALID,8,VALID,0.357812,
2011-07-29, 03:33:04,VALID,916.195,VALID,0,VALID,97.2367,VALID,0,VALID,18.6694,VALID,8,VALID,0.00117188,
2011-07-29, 03:34:04,VALID,916.21,VALID,0,VALID,97.2367,VALID,0,VALID,18.7279,VALID,8,VALID,0.419922,
2011-07-29, 03:35:04,VALID,916.224,VALID,0,VALID,97.1986,VALID,0.107441,VALID,18.6889,VALID,8,VALID,0.311719,
2011-07-29, 03:36:04,VALID,916.195,VALID,0,VALID,97.2214,VALID,0.107441,VALID,18.7279,VALID,8,VALID,0.427734,
2011-07-29, 03:37:04,VALID,916.218,VALID,0,VALID,97.2214,VALID,0,VALID,18.7279,VALID,8,VALID,0.494141,
2011-07-29, 03:38:04,VALID,916.241,VALID,0,VALID,97.2443,VALID,0,VALID,18.7669,VALID,8,VALID,0.313281,
2011-07-29, 03:39:04,VALID,916.263,VALID,0,VALID,97.2519,VALID,0,VALID,18.7864,VALID,8,VALID,0.153516,
2011-07-29, 03:40:04,VALID,916.261,VALID,0,VALID,97.2672,VALID,0,VALID,18.8254,VALID,8,VALID,0.192969,
2011-07-29, 03:41:04,VALID,916.241,VALID,0,VALID,97.2367,VALID,0,VALID,18.8463,VALID,8,VALID,0.046875,
2011-07-29, 03:42:04,VALID,916.179,VALID,0,VALID,97.2443,VALID,0,VALID,18.8449,VALID,8,VALID,0,
2011-07-29, 03:43:04,VALID,916.189,VALID,0,VALID,97.2367,VALID,0,VALID,18.8449,VALID,8,VALID,0,
2011-07-29, 03:44:04,VALID,916.188,VALID,0,VALID,97.1909,VALID,0,VALID,18.8254,VALID,8,VALID,0,
2011-07-29, 03:45:04,VALID,916.18,VALID,0,VALID,97.1604,VALID,0,VALID,18.8254,VALID,8,VALID,0.252344,
2011-07-29, 03:46:04,VALID,916.14,VALID,0,VALID,97.1681,VALID,0,VALID,18.785,VALID,8,VALID,0,
2011-07-29, 03:47:04,VALID,916.186,VALID,0,VALID,97.1299,VALID,0,VALID,18.7669,VALID,8,VALID,0.291406,
2011-07-29, 03:48:04,VALID,916.178,VALID,0,VALID,97.2748,VALID,0,VALID,18.8059,VALID,8,VALID,0.484766,
2011-07-29, 03:49:04,VALID,916.203,VALID,0,VALID,97.3053,VALID,0,VALID,18.8629,VALID,8,VALID,0.266797,